• In Hungary
  • List of Countries
  • For 7 days
  • Water Temperature
  • Satellite Maps
  • Weather Map
  • News
  • Weather Widgets
  • user-avatar
    Login

    Hourly Weather Suhaya Elan

    Today, 17 July, Tuesday

    Time Temperature Precipitation Wind Pressure Humidity
    00:00 +21°C° 0.5 mm 1 mps 737 mmHg 91%
    01:00 +20°C° 1 mm 2 mps 737 mmHg 92%
    02:00 +20°C° 1 mm 2 mps 737 mmHg 93%
    03:00 +19°C° 0 mm 2 mps 736 mmHg 94%
    04:00 +20°C° 0.9 mm 3 mps 736 mmHg 94%
    05:00 +20°C° 0.9 mm 3 mps 736 mmHg 94%
    06:00 +20°C° 0.9 mm 4 mps 736 mmHg 94%
    07:00 +21°C° 0.4 mm 5 mps 735 mmHg 91%
    08:00 +21°C° 0.4 mm 5 mps 735 mmHg 88%
    09:00 +22°C° 0.4 mm 6 mps 735 mmHg 86%
    10:00 +22°C° 0.7 mm 5 mps 735 mmHg 87%
    11:00 +22°C° 0.7 mm 4 mps 735 mmHg 88%
    12:00 +21°C° 0.7 mm 4 mps 734 mmHg 88%
    13:00 +22°C° 0.7 mm 3 mps 734 mmHg 87%
    14:00 +22°C° 0.7 mm 3 mps 734 mmHg 86%
    15:00 +22°C° 0.7 mm 3 mps 734 mmHg 85%
    16:00 +23°C° 0.8 mm 2 mps 733 mmHg 86%
    17:00 +23°C° 0.8 mm 2 mps 733 mmHg 86%
    18:00 +23°C° 0.8 mm 2 mps 733 mmHg 86%
    19:00 +23°C° 0.6 mm 2 mps 733 mmHg 88%
    20:00 +21°C° 0.6 mm 3 mps 733 mmHg 91%
    21:00 +20°C° 0.6 mm 3 mps 733 mmHg 93%
    22:00 +20°C° 0.2 mm 4 mps 733 mmHg 94%
    23:00 +19°C° 0.2 mm 4 mps 732 mmHg 95%

    Tomorrow, 18 July, Wednesday

    Time Temperature Precipitation Wind Pressure Humidity
    00:00 +19°C° 0.2 mm 4 mps 732 mmHg 96%
    01:00 +19°C° 1.2 mm 4 mps 732 mmHg 96%
    02:00 +19°C° 1.2 mm 5 mps 732 mmHg 95%
    03:00 +19°C° 1.2 mm 5 mps 732 mmHg 95%
    04:00 +19°C° 1.5 mm 5 mps 732 mmHg 95%
    05:00 +19°C° 1.5 mm 5 mps 732 mmHg 95%
    06:00 +19°C° 1.5 mm 5 mps 732 mmHg 95%
    07:00 +19°C° 2.3 mm 6 mps 732 mmHg 95%
    08:00 +19°C° 2.3 mm 6 mps 733 mmHg 94%
    09:00 +20°C° 2.3 mm 6 mps 733 mmHg 94%
    10:00 +20°C° 2.5 mm 6 mps 733 mmHg 93%
    11:00 +20°C° 2.5 mm 7 mps 733 mmHg 92%
    12:00 +20°C° 2.5 mm 7 mps 733 mmHg 91%
    13:00 +21°C° 0.7 mm 7 mps 733 mmHg 88%
    14:00 +22°C° 0.7 mm 6 mps 734 mmHg 84%
    15:00 +23°C° 0.7 mm 6 mps 734 mmHg 81%
    16:00 +23°C° 0.4 mm 6 mps 734 mmHg 80%
    17:00 +23°C° 0.4 mm 5 mps 734 mmHg 80%
    18:00 +23°C° 0.4 mm 5 mps 734 mmHg 79%
    19:00 +22°C° 0.1 mm 5 mps 735 mmHg 82%
    20:00 +21°C° 0.1 mm 4 mps 735 mmHg 85%
    21:00 +20°C° 0.1 mm 4 mps 735 mmHg 88%
    22:00 +20°C° 0 mm 4 mps 735 mmHg 89%
    23:00 +19°C° 0 mm 4 mps 736 mmHg 90%

    Day after tomorrow, 19 July, Thursday

    Time Temperature Precipitation Wind Pressure Humidity
    00:00 +19°C° 0 mm 4 mps 736 mmHg 91%
    01:00 +19°C° 0 mm 4 mps 736 mmHg 91%
    02:00 +19°C° 0 mm 4 mps 736 mmHg 91%
    03:00 +19°C° 0 mm 4 mps 736 mmHg 91%
    04:00 +19°C° 0 mm 4 mps 737 mmHg 90%
    05:00 +19°C° 0 mm 4 mps 737 mmHg 90%
    06:00 +19°C° 0 mm 4 mps 737 mmHg 89%
    07:00 +21°C° 0 mm 4 mps 738 mmHg 84%
    08:00 +23°C° 0 mm 4 mps 738 mmHg 79%
    09:00 +25°C° 0 mm 5 mps 738 mmHg 73%
    10:00 +26°C° 0.4 mm 5 mps 739 mmHg 70%
    11:00 +27°C° 0.4 mm 5 mps 739 mmHg 66%
    12:00 +28°C° 0.4 mm 6 mps 739 mmHg 62%
    13:00 +29°C° 0.2 mm 5 mps 739 mmHg 60%
    14:00 +29°C° 0.2 mm 5 mps 739 mmHg 58%
    15:00 +30°C° 0.2 mm 5 mps 739 mmHg 56%
    16:00 +29°C° 0 mm 4 mps 739 mmHg 60%
    17:00 +29°C° 0 mm 3 mps 739 mmHg 64%
    18:00 +28°C° 0 mm 2 mps 739 mmHg 68%
    19:00 +27°C° 0.1 mm 2 mps 739 mmHg 70%
    20:00 +26°C° 0.1 mm 2 mps 739 mmHg 71%
    21:00 +25°C° 0.1 mm 2 mps 739 mmHg 73%
    22:00 +24°C° 1.1 mm 2 mps 739 mmHg 76%
    23:00 +23°C° 1.1 mm 2 mps 739 mmHg 78%

    20 July, Friday

    Time Temperature Precipitation Wind Pressure Humidity
    00:00 +22°C° 1.1 mm 3 mps 739 mmHg 81%
    01:00 +21°C° 0.9 mm 2 mps 739 mmHg 83%
    02:00 +21°C° 0.9 mm 2 mps 739 mmHg 84%
    03:00 +21°C° 0.9 mm 2 mps 739 mmHg 86%
    04:00 +21°C° 0.3 mm 3 mps 740 mmHg 86%
    05:00 +21°C° 0.3 mm 3 mps 740 mmHg 85%
    06:00 +21°C° 0.3 mm 3 mps 740 mmHg 85%
    07:00 +22°C° 0 mm 3 mps 740 mmHg 81%
    08:00 +25°C° 0 mm 3 mps 740 mmHg 76%
    09:00 +26°C° 0 mm 2 mps 740 mmHg 72%
    10:00 +28°C° 0 mm 3 mps 740 mmHg 67%
    11:00 +29°C° 0 mm 3 mps 740 mmHg 62%
    12:00 +32°C° 0 mm 4 mps 740 mmHg 57%
    13:00 +32°C° 0 mm 4 mps 740 mmHg 55%
    14:00 +32°C° 0 mm 4 mps 740 mmHg 52%
    15:00 +33°C° 0 mm 4 mps 740 mmHg 50%
    16:00 +31°C° 0 mm 3 mps 740 mmHg 55%
    17:00 +30°C° 0 mm 3 mps 740 mmHg 60%
    18:00 +28°C° 0 mm 2 mps 740 mmHg 65%
    19:00 +27°C° 0.1 mm 2 mps 740 mmHg 65%
    20:00 +26°C° 0.1 mm 2 mps 740 mmHg 66%
    21:00 +25°C° 0.1 mm 2 mps 740 mmHg 66%
    22:00 +24°C° 1.9 mm 3 mps 740 mmHg 74%
    23:00 +22°C° 1.9 mm 3 mps 740 mmHg 81%

    21 July, Saturday

    Time Temperature Precipitation Wind Pressure Humidity
    00:00 +21°C° 1.9 mm 4 mps 740 mmHg 88%
    01:00 +21°C° 0.4 mm 4 mps 740 mmHg 89%
    02:00 +21°C° 0.4 mm 3 mps 740 mmHg 89%
    03:00 +21°C° 0.4 mm 2 mps 740 mmHg 90%
    04:00 +21°C° 0 mm 3 mps 740 mmHg 89%
    05:00 +21°C° 0 mm 3 mps 740 mmHg 88%
    06:00 +21°C° 0 mm 3 mps 740 mmHg 87%
    07:00 +24°C° 0 mm 3 mps 740 mmHg 81%
    08:00 +26°C° 0 mm 3 mps 740 mmHg 76%
    09:00 +27°C° 0 mm 3 mps 740 mmHg 70%
    10:00 +29°C° 0.1 mm 3 mps 740 mmHg 65%
    11:00 +30°C° 0.1 mm 3 mps 740 mmHg 60%
    12:00 +31°C° 0.1 mm 3 mps 740 mmHg 54%
    13:00 +33°C° 0 mm 3 mps 740 mmHg 52%
    14:00 +33°C° 0 mm 3 mps 740 mmHg 50%
    15:00 +34°C° 0 mm 3 mps 740 mmHg 48%
    16:00 +32°C° 0 mm 2 mps 740 mmHg 52%
    17:00 +31°C° 0 mm 2 mps 740 mmHg 56%
    18:00 +30°C° 0 mm 2 mps 740 mmHg 60%
    19:00 +29°C° 0 mm 2 mps 740 mmHg 62%
    20:00 +28°C° 0 mm 3 mps 740 mmHg 64%
    21:00 +27°C° 0 mm 3 mps 739 mmHg 66%
    22:00 +26°C° 0.1 mm 3 mps 739 mmHg 68%
    23:00 +25°C° 0.1 mm 4 mps 739 mmHg 70%

    22 July, Sunday

    Time Temperature Precipitation Wind Pressure Humidity
    00:00 +25°C° 0.1 mm 4 mps 739 mmHg 72%
    01:00 +24°C° 2.1 mm 3 mps 739 mmHg 78%
    02:00 +22°C° 2.1 mm 3 mps 739 mmHg 83%
    03:00 +21°C° 2.1 mm 2 mps 740 mmHg 89%
    04:00 +21°C° 0.5 mm 3 mps 740 mmHg 88%
    05:00 +22°C° 0.5 mm 3 mps 740 mmHg 87%
    06:00 +22°C° 0.5 mm 4 mps 740 mmHg 86%
    07:00 +25°C° 0 mm 4 mps 740 mmHg 81%
    08:00 +26°C° 0 mm 5 mps 740 mmHg 77%
    09:00 +28°C° 0 mm 5 mps 740 mmHg 72%
    10:00 +29°C° 0.3 mm 5 mps 740 mmHg 68%
    11:00 +30°C° 0.3 mm 5 mps 740 mmHg 65%
    12:00 +32°C° 0.3 mm 5 mps 740 mmHg 61%
    13:00 +32°C° 1.5 mm 5 mps 740 mmHg 61%
    14:00 +33°C° 1.5 mm 4 mps 740 mmHg 61%
    15:00 +33°C° 1.5 mm 4 mps 739 mmHg 61%
    16:00 +31°C° 0.6 mm 3 mps 740 mmHg 65%
    17:00 +30°C° 0.6 mm 3 mps 740 mmHg 69%
    18:00 +29°C° 0.6 mm 2 mps 740 mmHg 73%
    19:00 +28°C° 0.6 mm 2 mps 740 mmHg 76%
    20:00 +27°C° 0.6 mm 3 mps 740 mmHg 78%
    21:00 +26°C° 0.6 mm 3 mps 740 mmHg 81%
    22:00 +25°C° 1.7 mm 3 mps 740 mmHg 83%
    23:00 +25°C° 1.7 mm 3 mps 740 mmHg 85%
    Show more